Location: Viterbo
(42.4170°N, 12.1000°E)
Time: 21:58:32
(UTC+02:00)

ISS - Visible Passes

Search period start: 30 March 2023 00:00
Search period end: 09 April 2023 00:00
Orbit: 413 x 421 km, 51.6° (Epoch: 30 March)

Date Brightness Start Highest point End Pass type
(mag) Time Alt. Az. Time Alt. Az. Time Alt. Az.
30 Mar -3.8 21:21:40 10° WNW 21:24:55 83° WNW 21:24:55 83° WNW visible
31 Mar -3.5 20:33:26 10° NW 20:36:44 57° NNE 20:38:44 21° ESE visible
31 Mar -0.9 22:10:49 10° W 22:11:40 14° W 22:11:40 14° W visible
01 Apr -2.5 21:22:02 10° WNW 21:25:01 31° SW 21:25:29 29° SSW visible
02 Apr -3.2 20:33:26 10° WNW 20:36:42 54° SW 20:39:19 15° SE visible
03 Apr -1.0 21:23:19 10° WSW 21:24:32 12° SW 21:25:45 10° SSW visible
04 Apr -1.4 20:33:41 10° W 20:36:12 20° SW 20:38:42 10° S visible
